KO4WQD Weather Reports


time (UTC)temp
C
wind
direction
speed
KPH
gust
KPH
rain 1hr
cm
rain 24hr
cm
rain mn
cm
humidity
%
barometer
mb
20260504081509 6 188 1.6 3.2 0.00 0.00 0.00 81 1014.9
20260504044519 5 243 0.0 3.2 0.00 0.00 0.00 76 1015.8
20260504043016 5 243 0.0 3.2 0.00 0.00 0.00 75 1015.7
20260504041523 5 249 1.6 3.2 0.00 0.00 0.00 74 1015.6
20260504040026 5 269 1.6 3.2 0.00 0.00 0.00 72 1015.6
20260504034508 6 292 0.0 3.2 0.00 0.00 0.00 72 1015.6
20260504033030 6 192 0.0 3.2 0.00 0.00 0.00 69 1015.6
20260504031515 6 248 1.6 1.6 0.00 0.00 0.00 68 1015.4
20260504030026 6 217 1.6 3.2 0.00 0.00 0.00 66 1015.4
20260504024507 7 241 0.0 3.2 0.00 0.00 0.00 66 1015.3
20260504023008 7 241 0.0 3.2 0.00 0.00 0.00 63 1015.2
20260504021525 7 236 0.0 3.2 0.00 0.00 0.00 60 1015.0
20260504020031 8 236 0.0 3.2 0.00 0.00 0.00 59 1014.8
20260504014536 8 236 1.6 3.2 0.00 0.00 0.00 59 1014.7
20260504013012 8 274 0.0 3.2 0.00 0.00 0.00 64 1014.5
20260504011521 9 274 0.0 3.2 0.00 0.00 0.00 56 1014.5
20260504010027 10 274 0.0 3.2 0.00 0.00 0.00 54 1014.5
20260504004524 10 273 0.0 3.2 0.00 0.00 0.00 56 1014.4
20260504003007 11 273 0.0 0.0 0.00 0.00 0.00 61 1014.3
20260504001510 12 273 0.0 3.2 0.00 0.00 0.00 56 1014.3
20260504000017 13 269 0.0 1.6 0.00 0.00 0.00 55 1014.3
20260503234520 14 269 0.0 3.2 0.00 0.00 0.00 38 1014.1
20260503233029 15 216 0.0 4.8 0.00 0.00 0.00 36 1014.1
20260503231514 15 216 1.6 3.2 0.00 0.00 0.00 33 1014.0
20260503230014 15 247 1.6 6.4 0.00 0.00 0.00 35 1014.0
20260503224519 15 191 1.6 8.0 0.00 0.00 0.00 31 1013.9
20260503223024 16 343 3.2 14.5 0.00 0.00 0.00 30 1013.9
20260503221529 16 169 3.2 11.3 0.00 0.00 0.00 31 1013.9
20260503220018 16 209 3.2 12.9 0.00 0.00 0.00 30 1014.0
20260503214525 16 125 6.4 16.1 0.00 0.00 0.00 29 1014.0
20260503213023 16 340 1.6 9.7 0.00 0.00 0.00 30 1014.0
20260503211524 16 278 4.8 12.9 0.00 0.00 0.00 29 1014.2
20260503210028 16 54 4.8 9.7 0.00 0.00 0.00 29 1014.2
20260503204519 16 263 6.4 17.7 0.00 0.00 0.00 30 1014.1
20260503203022 16 232 3.2 17.7 0.00 0.00 0.00 31 1014.3
20260503201526 16 247 3.2 12.9 0.00 0.00 0.00 30 1014.2
20260503200025 16 259 3.2 12.9 0.00 0.00 0.00 31 1014.4
20260503194514 16 220 6.4 16.1 0.00 0.00 0.00 32 1014.7
20260503193017 15 279 8.0 14.5 0.00 0.00 0.00 34 1015.0
20260503191534 15 337 4.8 17.7 0.00 0.00 0.00 30 1015.4
20260503190027 15 51 4.8 17.7 0.00 0.00 0.00 33 1015.5
20260503184515 15 17 4.8 20.9 0.00 0.00 0.00 33 1015.6
20260503183018 15 231 8.0 17.7 0.00 0.00 0.00 35 1015.7
20260503181506 14 12 8.0 17.7 0.00 0.00 0.00 34 1015.7
20260503180008 14 30 6.4 25.7 0.00 0.00 0.00 36 1016.0
20260503174512 13 226 3.2 16.1 0.00 0.00 0.00 38 1016.1
20260503173017 13 154 3.2 17.7 0.00 0.00 0.00 39 1016.2
20260503171504 13 242 9.7 25.7 0.00 0.00 0.00 43 1016.4